Regional Weather Roundup
Issued by NWS Upton, NY

Current Version | Previous Version | Graphics & Text | Print | Product List | Glossary On
Versions: 1 2 3 4 5 6 7 8 9 10 11 12 13 14 15 16 17 18 19 20 21 22 23 24 25 26 27 28 29 30 31 32 33 34 35 36 37 38 39 40 41 42 43 44 45 46 47 48 49 50
000 ASUS41 KOKX 182308 RWROKX REGIONAL WEATHER ROUNDUP NATIONAL WEATHER SERVICE NEW YORK NY 600 PM EST SAT NOV 18 2017 NOTE: "FAIR" INDICATES FEW OR NO CLOUDS BELOW 12,000 FEET WITH NO SIGNIFICANT WEATHER AND/OR OBSTRUCTIONS TO VISIBILITY. NYZ071-072-176-178-NJZ106-104-190000- NEW YORK CITY METRO AREA CITY SKY/WX TMP DP RH WIND PRES REMARKS Central Park LGT RAIN 47 44 90 VRB3 29.65F FOG Bronx Bot Gard N/A 46 43 87 CALM 29.66F LaGuardia APRT LGT RAIN 50 43 77 CALM 29.63F Kennedy INTL LGT RAIN 52 48 86 S15 29.65F Breezy Point N/A 50 N/A N/A S9 N/A Newark/Liberty RAIN 48 42 80 CALM 29.64S Teterboro RAIN 47 43 86 CALM 29.63S $$ NYZ177-179-078>081-190000- LONG ISLAND NEW YORK CITY SKY/WX TMP DP RH WIND PRES REMARKS Jones Beach N/A 55 N/A N/A SW13G23 N/A Matinecock PT N/A 52 N/A N/A SW7 N/A Farmingdale CLOUDY 54 48 80 SW13 29.65F MacArthur/ISP LGT RAIN 55 49 80 SW12G18 29.64F Shirley LGT RAIN 55 50 83 S13 29.65F Mt Sinai Harb N/A N/A N/A N/A S5 N/A Westhampton LGT RAIN 56 46 69 S12G24 29.67F East Hampton RAIN 54 47 75 S10G22 29.66F Southold NOT AVBL Montauk N/A 58 47 66 SW15G23 29.68F $$ NYZ052-065-067-190000- HUDSON VALLEY CITY SKY/WX TMP DP RH WIND PRES REMARKS White Plains LGT RAIN 46 43 89 CALM 29.62F Larchmont Harb N/A 48 N/A N/A SW6 N/A Croton On Huds N/A 43 N/A N/A MISG N/A Newburgh LGT RAIN 41 41 100 CALM 29.62F FOG Montgomery LGT RAIN 38 37 97 CALM 29.60F FOG Poughkeepsie RAIN 42 39 89 SE5 29.61F FOG Albany CLOUDY 43 35 73 S14G24 29.57F $$ NJZ001-105-106-008-010-013-015-019>022-104-190000- NEW JERSEY CITY SKY/WX TMP DP RH WIND PRES REMARKS Newark/Liberty RAIN 48 42 80 CALM 29.64S Teterboro RAIN 47 43 86 CALM 29.63S Caldwell LGT RAIN 42 42 100 CALM 29.64F FOG Somerville RAIN 43 43 100 CALM 29.61F FOG Linden LGT RAIN 46 43 88 CALM 29.64F Perth Amboy N/A 46 N/A N/A NW3 N/A Sussex CLOUDY 40 40 100 CALM 29.59F FOG Andover NOT AVBL Trenton LGT RAIN 46 45 96 CALM 29.62F FOG Millville CLOUDY 57 40 52 VRB3 29.64F Atlantic City CLOUDY 57 46 66 S16G25 29.65F Wrightstown LGT RAIN 50 43 78 S5 29.61F Toms River CLOUDY 54 43 66 SW9 29.64F Belmar LGT RAIN 53 44 71 S8 29.64F $$ PAZ047>061-062-071-190000- EASTERN PENNSYLVANIA CITY SKY/WX TMP DP RH WIND PRES REMARKS Philadelphia LGT RAIN 51 43 74 S8 29.62F Allentown LGT RAIN 45 42 89 CALM 29.59F Scranton LGT RAIN 43 40 89 S6 29.52F $$ CTZ002-004>006-009-010-012-RIZ004-006-007-MAZ004-011-015-190000- SOUTHERN NEW ENGLAND IN CT CITY SKY/WX TMP DP RH WIND PRES REMARKS Bradley INTL CLOUDY 36 31 82 N5 29.66S WCI 32 Hartford LGT RAIN 40 33 76 NE7 29.66F Danbury RAIN 47 44 90 SE3 29.64F FOG Wtrbury/Oxford LGT RAIN 45 44 97 SW5 29.65S Norwalk Harbor NOT AVBL Bridgeport LGT RAIN 52 47 83 SW13 29.64F Meriden LGT RAIN 47 45 93 CALM 29.65F New Haven LGT RAIN 53 46 77 SW8 29.65F Chester LGT RAIN 52 48 87 S7 29.65F Groton CLOUDY 55 47 74 S17 29.66F Wilimantic CLOUDY 42 35 76 CALM 29.66F IN RI CITY SKY/WX TMP DP RH WIND PRES REMARKS Providence CLOUDY 53 47 79 S10 29.68F Block Island CLOUDY 57 49 74 SW15 29.68F Westerly CLOUDY 57 48 72 S14 29.68F IN MA CITY SKY/WX TMP DP RH WIND PRES REMARKS Boston LGT RAIN 45 40 82 E7 29.69F Worcester CLOUDY 39 32 76 NE3 29.65F Westfield CLOUDY 34 32 92 N6 29.66S WCI 29 Provincetown CLOUDY 49 44 83 SE6 29.72F Nantucket CLOUDY 52 50 93 S12 29.73F $$ ANZ330-335-338-340-345-350-353-355-190000- COASTAL MARINE OBSERVATIONS STATION/POSITION TIME SKY/WX TEMP WIND PRES VSBY WAVE AIR SEA DIR/SP/G HT/PER (UTC) (F) (DEG/KT/KT) (MB) (MI) (FT/S) NY HARB ENTRANCE 2150 57 58 210/ 23/ 27 1002.8 6/ 6 20 S FIRE ISLAND 2150 58 58 200/ 23/ 27 1004.3 8/ 6 GREAT SOUTH BAY 2230 52 46 220/ 14/ 19 N/A HUDSON CANYON 2150 61 61 200/ 27/ 31 1004.8 8/ 7 KINGS POINT NOT AVBL EXECUTION ROCKS 2230 52 190/ 10/ 12 N/A WESTERN LI SOUND 2149 53 200/ 10/ 14 N/A 1 CENTRAL LI SOUND NOT AVBL ROBBINS REEF NOT AVBL $$ >>>>>>>>>>>>>>>>>>>>>>>>>>>> KEY <<<<<<<<<<<<<<<<<<<<<<<<<<< > < > SKY/WX - Sky Condition/Present Weather < > TMP - Temperature in Fahrenheit < > DP - Dew Point in Fahrenheit < > RH - Relative Humidity in Percent < > WIND - Direction (from) and Speed in MPH < > PRES - Mean Sea Level Pressure (inches of Hg) < > WCI - Wind Chill Index < > VSB - VISIBILITY IN MILES < > HX - HEAT INDEX < > TC - TEMPERATURE IN CELSIUS < > VRB - VARIABLE WIND DIRECTION < > < >>>>>>>>>>>>>>>>>>>>>>>>>>>> KEY <<<<<<<<<<<<<<<<<<<<<<<<<<<

USA.gov is the U.S. government's official web portal to all federal, state and local government web resources and services.